Location: Bear Trap Landing
(45.2437°N, 67.7928°W)
Time: 18:30:53
(UTC+00:00)

Envisat - Pass Details

Date: 14 March 2021
Orbit: 764 x 766 km, 98.1° (Epoch: 21 April)

Event Time Altitude Azimuth Distance (km) Brightness Sun altitude
Rises 09:49:53 0° 17° (NNE) 3,243 6.6 -10.5°
Reaches altitude 10° 09:52:16 10° 23° (NNE) 2,312 5.9 -10.1°
Maximum altitude 09:57:14 51° 99° (E) 954 4.0 -9.3°
Drops below altitude 10° 10:02:09 10° 176° (S) 2,294 5.5 -8.4°
Sets 10:04:31 0° 181° (S) 3,215 6.2 -8.0°
